Regional Weather Roundup
Issued by NWS

Home | Current Version | Previous Version | Text Only | Print | Product List | Glossary On
Versions: 1 2 3 4 5 6 7 8 9 10 11 12 13 14 15 16 17 18 19 20 21 22 23 24 25 26 27 28 29 30 31 32 33 34 35 36 37 38 39 40 41 42 43 44 45 46 47 48 49 50
000
ASUS45 KBOI 011010
RWRID

IDAHO REGIONAL WEATHER ROUNDUP
NATIONAL WEATHER SERVICE BOISE ID
400 AM MDT SUN MAY 01 2016

NOTE: "FAIR" INDICATES FEW OR NO CLOUDS BELOW 12000 FEET
WITH NO SIGNIFICANT WEATHER AND/OR OBSTRUCTIONS TO VISIBILITY

IDZ012-014-011100-
SOUTHWEST IDAHO


CITY           SKY/WX    TMP DP  RH WIND       PRES   REMARKS
BOISE          CLEAR     44  36  73 CALM      30.10R
CALDWELL       CLEAR     43  37  79 CALM      30.10S
MOUNTAIN HOME  MOCLDY    43  36  77 W2        30.10R
$$

IDZ016-017-011100-
SOUTHCENTRAL IDAHO


CITY           SKY/WX    TMP DP  RH WIND       PRES   REMARKS
BURLEY         CLOUDY    44  38  79 NE9       30.09S
JEROME         MOCLDY    44  40  85 NE8       30.11S
TWIN FALLS     CLOUDY    45  42  89 N5        30.11S
$$

IDZ019>023-011100-
SOUTHEAST IDAHO


CITY           SKY/WX    TMP DP  RH WIND       PRES   REMARKS
IDAHO FALLS    CLOUDY    37  31  78 N6        30.18R WCI  32
POCATELLO      CLOUDY    40  34  79 NE7       30.15R
REXBURG        CLOUDY    39  27  62 E3        30.19R
$$

IDZ006-010-011-018-031-032-011100-
CENTRAL IDAHO MOUNTAINS


CITY           SKY/WX    TMP DP  RH WIND       PRES   REMARKS
MCCALL         CLEAR     38  31  76 VRB5      30.15S WCI  34
HAILEY         CLOUDY    41  34  75 NW3       30.16S
STANLEY          N/A     27  24  89 S3        30.20S
SALMON         CLOUDY    43  37  81 NE9       30.22S
CHALLIS        CLEAR     39  28  64 NW8       30.20S WCI  33
$$

IDZ002-004-006-007-026-011100-
NORTHERN IDAHO


CITY           SKY/WX    TMP DP  RH WIND       PRES   REMARKS
LEWISTON       CLEAR     46  42  86 SE3       30.21F
LOWELL           N/A     44  42  93 N3        30.26R
COEUR D`ALENE  CLEAR     43  37  81 E9        30.24S
MULLAN PASS    CLEAR     36  28  73 SE3       30.27F
$$



USA.gov is the U.S. government's official web portal to all federal, state and local government web resources and services.